Location: Goettingen
(51.5300°N, 9.9433°E)
Time: 19:39:57
(UTC+02:00)

ISS - Pass Details

Date: 20 July 2019
Orbit: 409 x 418 km, 51.6° (Epoch: 20 July)

Event Time Altitude Azimuth Distance (km) Brightness Sun altitude
Rises 01:26:12 0° 278° (W) 2,351 0.1 -17.7°
Reaches altitude 10° 01:28:18 10° 277° (W) 1,486 -0.9 -17.7°
Maximum altitude 01:31:38 85° 189° (S) 419 -3.9 -17.7°
Drops below altitude 10° 01:34:57 10° 102° (ESE) 1,479 -1.1 -17.7°
Sets 01:37:02 0° 101° (ESE) 2,339 -0.1 -17.7°
